Main page
METAR-TAF:

METAR-TAF

Airports :

Monticello Regional Airport

Monticello, Iowa, United States

latitude: 42-14N, longitude: 091-10W, elevation: 850 ft

Current weather observation

The report was made 34 minutes ago, at 22:35 UTC
Wind 14 mph from the South with gusts up to 25 mph
Temperature 63°F
Humidity 34%
Pressure 29.82 in. Hg
Visibility: 9 miles
Clear sky

METAR: KMXO 222235Z AUTO 19012G22KT 9SM CLR 17/01 A2982 RMK AO2

Time: 18:09 (23:09 UTC)


TAF: missing

Weather observations and forecasts of more than 4000 airports (METAR and TAF reports).

The available stations are represented by yellow and red dots on the map.

Hover mouse over dot to see the name of the station.

Then click to see weather observations and forecasts.

To change the map : click on the green buttons with a black cross to zoom in, on the green button with a dash to zoom out, or on the green arrows for adjacent maps.


METAR-TAF: